Location: Newark
(45.5167°N, 11.1667°E)
Time: 14:44:48
(UTC+00:00)

Explorer 7 - Pass Details

Date: 18 December 2019
Orbit: 485 x 679 km, 50.3° (Epoch: 29 January)

Event Time Altitude Azimuth Distance (km) Brightness Sun altitude
Rises 18:50:47 0° 291° (WNW) 3,036 11.5 -33.5°
Reaches altitude 10° 18:53:28 10° 279° (W) 2,116 10.6 -34.0°
Enters shadow 18:56:31 24° 243° (WSW) 1,391 9.3 -34.5°
Maximum altitude 18:57:29 26° 224° (SW) 1,328 - -34.7°
Drops below altitude 10° 19:01:25 10° 169° (S) 2,066 - -35.4°
Sets 19:04:01 0° 156° (SSE) 2,948 - -35.8°
